Terminal Aerodrome Forecast
Issued by NWS

Home | Current Version | Previous Version | Text Only | Print | Product List | Glossary Off
Versions: 1 2 3 4 5 6 7 8 9 10 11 12 13 14 15 16 17

000
FTUS43 KGRB 280304 AAA
TAFMTW
TAF AMD
KMTW 280304Z 2803/2824 VRB03KT P6SM SCT060 BKN120
      TEMPO 2804/2807 2SM TSRA BR BKN040CB
     FM280700 02007KT 5SM BR VCSH SCT025 OVC040
     FM281000 01008KT 5SM BR SCT010 OVC025
      TEMPO 2810/2814 2SM -SHRA BR BKN010
     FM281400 04010KT P6SM VCSH BKN035
     FM282000 04010KT P6SM SCT050 BKN120=

USA.gov is the U.S. government's official web portal to all federal, state and local government web resources and services.